Weather History for Fort Myers, FL

Change the Weather History Date:

Tuesday, February 19, 2013

  Actual Average Record
Temperature  
Mean Temperature 66 °F 67 °F  
Max Temperature 79 °F 78 °F 89 °F (1944)
Min Temperature 52 °F 56 °F 34 °F (1958)
Degree Days  
Heating Degree Days 0 2  
Month to date heating degree days 44 44  
Since 1 July heating degree days 116 245  
Cooling Degree Days 1 4  
Month to date cooling degree days 61 66  
Year to date cooling degree days 237 149  
Growing Degree Days 16 (Base 50)    
Moisture  
Dew Point 56 °F    
Average Humidity 74    
Maximum Humidity 93    
Minimum Humidity 52    
Precipitation  
Precipitation 0.00 in 0.07 in 1.78 in (1913)
Month to date precipitation 1.84 1.41  
Year to date precipitation 2.46 3.35  
Sea Level Pressure  
Sea Level Pressure 30.16 in    
Wind  
Wind Speed 5 mph (SSE)    
Max Wind Speed 14 mph    
Max Gust Speed 18 mph    
Visibility 10 miles    
Events      
T = Trace of Precipitation, MM = Missing Value Source: NWS Daily Summary

Daily Weather History Graph

Daily Weather History Graph

Search for Another Location

Airport:

Trip Planner

Search our weather history database for the weather conditions in past years. The results will help you decide how hot, cold, wet, or windy it might be!

Date:

Astronomy

Feb. 19, 2013 Rise Set
Actual Time 7:00 AM EST 6:22 PM EST
Civil Twilight 6:36 AM EST 6:46 PM EST
Nautical Twilight 6:09 AM EST 7:13 PM EST
Astronomical Twilight 5:42 AM EST 7:40 PM EST
Moon 1:09 PM EST (2/19) 2:14 AM EST (2/19)
Length of Visible Light 12h 09m
Length of Day
11h 22m
Waxing Gibbous, 67% of the Moon is Illuminated
Feb 19
Waxing Gibbous
Feb 25
Full
Mar 4
Last Quarter
Mar 11
New
Mar 19
First Quarter

Hourly Weather History & Observations

Time (EST) Temp. Dew Point Humidity Pressure Visibility Wind Dir Wind Speed Gust Speed Precip Events Conditions
12:53 AM 55.0 °F 48.0 °F 77% 30.22 in 10.0 mi Calm Calm - N/A   Clear
1:53 AM 54.0 °F 48.9 °F 83% 30.19 in 10.0 mi East 3.5 mph - N/A   Partly Cloudy
2:53 AM 55.0 °F 50.0 °F 83% 30.18 in 10.0 mi East 4.6 mph - N/A   Mostly Cloudy
3:53 AM 55.0 °F 50.0 °F 83% 30.17 in 10.0 mi ENE 5.8 mph - N/A   Clear
4:53 AM 53.1 °F 48.9 °F 86% 30.18 in 10.0 mi NNE 3.5 mph - N/A   Clear
5:53 AM 53.1 °F 50.0 °F 89% 30.18 in 10.0 mi Calm Calm - N/A   Scattered Clouds
6:53 AM 53.1 °F 50.0 °F 89% 30.19 in 10.0 mi East 3.5 mph - N/A   Clear
7:53 AM 55.9 °F 52.0 °F 87% 30.19 in 10.0 mi ESE 3.5 mph - N/A   Clear
8:53 AM 64.0 °F 54.0 °F 70% 30.19 in 10.0 mi SE 5.8 mph - N/A   Clear
9:53 AM 70.0 °F 55.9 °F 61% 30.19 in 10.0 mi SE 10.4 mph - N/A   Clear
10:53 AM 73.9 °F 57.0 °F 55% 30.19 in 10.0 mi SSE 11.5 mph - N/A   Clear
11:53 AM 75.9 °F 57.9 °F 54% 30.19 in 10.0 mi Variable 5.8 mph - N/A   Mostly Cloudy
1:53 PM 78.1 °F 59.0 °F 52% 30.14 in 10.0 mi WSW 8.1 mph - N/A   Scattered Clouds
2:53 PM 78.1 °F 60.1 °F 54% 30.13 in 10.0 mi SSW 10.4 mph - N/A   Overcast
3:53 PM 78.1 °F 60.1 °F 54% 30.11 in 10.0 mi WSW 9.2 mph - N/A   Mostly Cloudy
4:53 PM 75.9 °F 61.0 °F 60% 30.11 in 10.0 mi SW 6.9 mph - N/A   Partly Cloudy
5:53 PM 73.9 °F 61.0 °F 64% 30.11 in 10.0 mi SSW 3.5 mph - N/A   Clear
7:53 PM 69.1 °F 62.1 °F 78% 30.12 in 10.0 mi WSW 3.5 mph - N/A   Clear
8:53 PM 68.0 °F 62.1 °F 81% 30.12 in 10.0 mi Calm Calm - N/A   Clear
9:53 PM 64.9 °F 62.1 °F 90% 30.13 in 10.0 mi Calm Calm - N/A   Clear
10:53 PM 64.0 °F 61.0 °F 90% 30.13 in 10.0 mi Calm Calm - N/A   Clear
11:53 PM 63.0 °F 60.1 °F 90% 30.12 in 10.0 mi Calm Calm - N/A   Clear